Regional Weather Roundup
Issued by NWS

Home | Current Version | Previous Version | Graphics & Text | Print | Product List | Glossary On
Versions: 1 2 3 4 5 6 7 8 9 10 11 12 13 14 15 16 17 18 19 20 21 22 23 24 25 26 27 28 29 30 31 32 33 34 35 36 37 38 39 40 41 42 43 44 45 46 47 48 49 50
000
ASUS43 KDTX 282301
RWRMI
MICHIGAN HOURLY REGIONAL WEATHER ROUNDUP
NATIONAL WEATHER SERVICE DETROIT/PONTIAC MI
700 PM EDT FRI AUG 28 2015

NOTE: "FAIR" INDICATES FEW OR NO CLOUDS BELOW 12,000 FEET WITH NO
SIGNIFICANT WEATHER AND/OR OBSTRUCTION TO VISIBILITY.

MIZ047>049-052>055-059>063-066>070-074>076-081>083-290000-
SOUTHEAST LOWER MICHIGAN

CITY           SKY/WX    TMP DP  RH WIND       PRES   REMARKS
ADRIAN         CLOUDY    74  59  59 S3        30.13F
ALMA           CLOUDY    72  61  68 CALM      30.11F
ANN ARBOR      CLOUDY    73  61  65 S5        30.12F
BAD AXE        CLOUDY    70  57  63 CALM      30.13F
CARO           CLOUDY    70  62  75 E3        30.11F
DETROIT CITY   CLOUDY    72  57  59 S6        30.13F
DETROIT        CLOUDY    71  59  65 SE6       30.14F
FLINT          CLOUDY    74  60  61 S3        30.12F
GROSSE ILE     CLOUDY    70  61  73 SE3       30.13S
HILLSDALE      CLOUDY    72  64  76 CALM      30.13F
HOWELL         CLOUDY    73  58  57 S3        30.12F

CITY           SKY/WX    TMP DP  RH WIND       PRES   REMARKS
JACKSON        CLOUDY    73  61  65 S5        30.12F
LAMBERTVILLE   PTSUNNY   73  61  66 CALM      30.14F
LANSING        CLOUDY    73  58  59 W7        30.12S
LAPEER         FAIR      71  59  65 CALM      30.13F
MASON          CLOUDY    73  59  59 CALM      30.12F
MT. CLEMENS    CLOUDY    70  61  72 SE9       30.12F
PONTIAC        CLOUDY    72  57  59 S5        30.13S
PORT HOPE        N/A     69  61  75 CALM      30.11F
PORT HURON     CLOUDY    70  59  68 S3        30.14S
TRI CITIES     CLOUDY    74  60  61 S3        30.12S
MIDLAND        FAIR      73  59  61 S3        30.10S
TROY           CLOUDY    75  55  51 S3        30.15S
SAGINAW HB     CLOUDY    72  61  68 CALM      30.11S
$$
MIZ043>046-050>051-056>058-064>065-071>073-077>080-290000-
SOUTHWEST LOWER MICHIGAN

CITY           SKY/WX    TMP DP  RH WIND       PRES   REMARKS
BATTLE CREEK   CLOUDY    74  60  61 SW3       30.13R
BENTON HARBOR  CLOUDY    72  64  76 CALM      30.10R
BIG RAPIDS     CLOUDY    69  60  73 CALM      30.11S
COLDWATER      CLOUDY    73  62  69 CALM      30.12S
FREMONT        FAIR      69  62  77 CALM      30.11S
HOLLAND        CLOUDY    72  61  68 SW5       30.12R
GRAND RAPIDS   CLOUDY    73  60  63 W5        30.12R
IONIA          FAIR      73  60  63 SW3       30.11S
KALAMAZOO      CLOUDY    74  60  61 CALM      30.11S
LUDINGTON      CLOUDY    71  65  81 SW6       30.10F
MARSHALL       CLOUDY    73  62  68 S3        30.11F
MOUNT PLEASANT CLOUDY    74  58  56 SW6       30.10S
MUSKEGON       CLOUDY    71  60  68 S5        30.11S
SOUTH HAVEN    CLOUDY    72  62  72 CALM      30.11R
$$
MIZ016>042-290000-
NORTHERN LOWER MICHIGAN

CITY           SKY/WX    TMP DP  RH WIND       PRES   REMARKS
ALPENA         PTSUNNY   73  56  54 S8        30.08F
BEAVER ISLAND  PTSUNNY   67  60  78 SW9G17    30.05S
BELLAIRE       PTSUNNY   73  58  58 S3        30.06F
CADILLAC       PTSUNNY   69  58  67 SW8       30.11R
CHARLEVOIX     CLOUDY    70  60  71 SW7       30.09R
FRANKFORT      CLOUDY    68  61  78 S7        30.09S
GAYLORD        PTSUNNY   70  56  61 S8        30.09F
GRAYLING       MOSUNNY   70  56  62 S5        30.11S
HARBOR SPRINGS PTSUNNY   69  62  79 W7        30.06S
HOUGHTON LAKE  PTSUNNY   70  57  63 S7        30.11S
MANISTEE       CLOUDY    68  57  68 S3        30.10S
OSCODA         PTSUNNY   70  56  61 S6        30.10F
PELLSTON       PTSUNNY   71  60  68 SW8       30.06S
ROGERS CITY    PTSUNNY   73  56  55 S7        30.07F
TRAVERSE CITY  CLOUDY    74  58  57 SW5       30.07R
$$
MIZ007>008-015-290000-
EASTERN UPPER MICHIGAN

CITY           SKY/WX    TMP DP  RH WIND       PRES   REMARKS
KINROSS        CLOUDY    70  59  68 SW7       30.06R
MACKINAC ISLAN PTSUNNY   68  58  71 W8        30.06R
NEWBERRY       CLOUDY    67  60  78 S13G20    30.03S
S. S. MARIE    CLOUDY    70  56  61 SW8       30.05R
MUNISING         N/A     73  62  68 S10       29.98S
$$
MIZ004>006-011>014-085-290000-
CENTRAL UPPER MICHIGAN

CITY           SKY/WX    TMP DP  RH WIND       PRES   REMARKS
MANISTIQUE     CLOUDY    64  61  89 S10       30.04R
ESCANABA       CLOUDY    66  61  82 S10       30.01S
MENOMINEE      CLOUDY    68  59  73 SW9       30.04R
SAWYER-GWINN   MOSUNNY   73  63  68 SW14      30.00S
$$
MIZ001>003-009>011-084-290000-
WESTERN UPPER MICHIGAN

CITY           SKY/WX    TMP DP  RH WIND       PRES   REMARKS
IRON MOUNTAIN  CLOUDY    72  63  73 SW8       30.01S
HOUGHTON       CLOUDY    70  62  76 NW8       29.96R
COPPER HARBOR    N/A     71  62  73 VRB3      29.94S
IRONWOOD       MOSUNNY   75  63  64 SW12      29.93S
$$

ABBREVIATIONS USED IN REMARKS
   TC - TEMPERATURE IN CELSIUS
  WCI - WIND CHILL INDEX
   HX - HEAT INDEX
  VSB - VISIBILITY




USA.gov is the U.S. government's official web portal to all federal, state and local government web resources and services.